Flag for Germany Weather past 2 weeks in Ratingen, North Rhine-Westphalia, Germany

Now
45 °F

Passing clouds.


Feels Like: 42 °F
Forecast: 36 / 58 °F
Wind: 5 mph from Northwest

Location: Duesseldorf


UV Index: 3 (Moderate)

Visibility: N/A


Pressure: 29.92 "Hg

Humidity: 81%

Dew point: 39 °F

Location of RatingenLocation

Historic Weather in Ratingen

°F

Ratingen temperature yesterday

Maximum temperature yesterday: 64 °F (at 4:20 PM)
Minimum temperature yesterday: 43 °F (at 6:50 AM)
Average temperature yesterday: 54 °F

Past Weeks' High & Low Weather Summary

 TemperatureHumidityPressure
High72 °F (Apr 3, 1:50 PM)94% (Apr 5, 5:20 AM)30.45 "Hg (Apr 5, 5:20 AM)
Low30 °F (Apr 16, 4:50 AM)24% (Apr 17, 4:50 PM)29.59 "Hg (Apr 3, 1:50 PM)
Average53 °F66%30.06 "Hg
* Reported Apr 3 7:20 AM — Apr 18 7:20 AM, Ratingen, Weather by CustomWeather, © 2014

Note: Actual official high and low records may vary slightly from our data, if they occured in-between our weather recording intervals... More about our weather records

Advertising

Historic Weather Conditions — Data for Previous 24 hours

 ConditionsComfort  
Time TempWeatherWind HumidityBarometerVisibility
7:20 AM
Apr 18
43 °FPassing clouds.7 mph87%29.92 "HgN/A
6:50 AM43 °FPassing clouds.6 mph87%29.92 "HgN/A
6:20 AM45 °FPassing clouds.8 mph81%29.92 "HgN/A
5:50 AM45 °FPassing clouds.8 mph87%29.92 "HgN/A
5:20 AM45 °FPassing clouds.8 mph87%29.92 "HgN/A
4:50 AM46 °FPassing clouds.7 mph87%29.92 "HgN/A
4:20 AM46 °FPassing clouds.7 mph87%29.92 "HgN/A
3:50 AM48 °FPassing clouds.7 mph87%29.92 "HgN/A
3:20 AM48 °FPassing clouds.8 mph87%29.89 "HgN/A
2:50 AM48 °FLight rain. Passing clouds.9 mph87%29.92 "HgN/A
2:20 AM48 °FLight rain. Partly cloudy.10 mph87%29.92 "HgN/A
1:20 AM50 °FLight rain. Partly cloudy.12 mph82%29.92 "HgN/A
12:50 AM52 °FLight rain. Passing clouds.13 mph77%29.92 "HgN/A
12:20 AM54 °FClear.10 mph63%29.92 "Hg10 mi
11:50 PM
Apr 17
54 °FClear.12 mph58%29.92 "Hg10 mi
11:20 PM55 °FClear.10 mph51%29.92 "Hg10 mi
10:50 PM57 °FClear.7 mph44%29.92 "Hg10 mi
10:20 PM55 °FClear.8 mph44%29.92 "Hg10 mi
9:50 PM55 °FClear.8 mph44%29.95 "Hg10 mi
9:20 PM59 °FLight rain. Partly sunny.16 mph34%29.95 "HgN/A
8:50 PM59 °FSunny.7 mph34%29.95 "Hg10 mi
8:20 PM61 °FSunny.8 mph31%29.95 "Hg10 mi
7:50 PM61 °FSunny.6 mph31%29.95 "Hg10 mi
6:50 PM63 °FSunny.10 mph30%29.95 "Hg10 mi
6:20 PM63 °FSunny.10 mph27%29.98 "Hg10 mi
5:50 PM63 °FSunny.14 mph27%29.98 "Hg10 mi
5:20 PM64 °FSunny.14 mph26%29.98 "Hg10 mi
4:50 PM64 °FSunny.14 mph24%30.01 "Hg10 mi
4:20 PM64 °FSunny.10 mph28%30.04 "Hg10 mi
3:50 PM63 °FPassing clouds.9 mph30%30.04 "HgN/A
3:20 PM63 °FSunny.9 mph30%30.07 "Hg10 mi
2:50 PM63 °FSunny.9 mph30%30.09 "Hg10 mi
2:20 PM61 °FSunny.13 mph34%30.09 "Hg10 mi
1:50 PM61 °FSunny.9 mph31%30.12 "Hg10 mi
1:20 PM59 °FSunny.13 mph39%30.15 "Hg10 mi
12:50 PM59 °FSunny.13 mph36%30.15 "Hg10 mi
12:20 PM59 °FSunny.13 mph34%30.18 "Hg10 mi
11:50 AM57 °FSunny.14 mph36%30.18 "Hg10 mi
11:20 AM55 °FSunny.12 mph38%30.21 "Hg10 mi
10:50 AM55 °FSunny.12 mph44%30.21 "Hg10 mi
10:20 AM54 °FSunny.12 mph44%30.24 "Hg10 mi
9:20 AM50 °FSunny.10 mph50%30.24 "Hg10 mi
8:50 AM48 °FSunny.9 mph54%30.24 "Hg10 mi
8:20 AM46 °FSunny.12 mph57%30.24 "Hg10 mi
Weather by CustomWeather, © 2014

See weather overview